Flag for U.S.A. Weather past 2 weeks in El Monte, California, U.S.A.

Now
67 °F

Clear.


Feels Like: 67 °F
Forecast: 56 / 85 °F
Wind: 3 mph from South

Location: Fullerton Municipal Airport

Current Time: Mar 28, 2015 at 9:38:39 PM

Latest Report: Mar 28, 2015 at 8:53 PM


Visibility: 10 mi

Pressure: 30.02 "Hg

Humidity: 71%

Dew point: 57 °F

Location of El MonteLocation

Historic Weather in El Monte — Graph

°F

El Monte temperature yesterday

Maximum temperature yesterday: 90 °F (at 1:53 PM)
Minimum temperature yesterday: 61 °F (at 6:53 AM)
Average temperature yesterday: 75 °F

Past Weeks' High & Low Weather Summary

 TemperatureHumidityPressure
High96 °F (Mar 14, 2:53 PM)87% (Mar 28, 4:53 AM)30.18 "Hg (Mar 28, 4:53 AM)
Low56 °F (Mar 24, 5:53 AM)7% (Mar 26, 1:53 PM)29.85 "Hg (Mar 16, 5:53 PM)
Average70 °F50%30.02 "Hg
* Reported Mar 13 7:53 PM — Mar 28 7:53 PM, El Monte, Weather by CustomWeather, © 2015

Note: Actual official high and low records may vary slightly from our data, if they occured in-between our weather recording intervals... More about our weather records

Advertising

El Monte weather history for previous 24 hours

 ConditionsComfort  
Time TempWeatherWind HumidityBarometerVisibility
7:53 PM
Sat, Mar 28
69 °FSunny.3 mph57%30.00 "Hg10 mi
6:53 PM72 °FSunny.6 mph48%29.98 "Hg10 mi
5:53 PM78 °FSunny.7 mph36%29.98 "Hg10 mi
4:53 PM79 °FSunny.6 mph45%29.97 "Hg10 mi
3:53 PM81 °FSunny.7 mph37%29.98 "Hg10 mi
2:53 PM82 °FSunny.6 mph33%29.99 "Hg10 mi
1:53 PM79 °FSunny.6 mph38%30.02 "Hg10 mi
12:53 PM77 °FSunny.6 mph44%30.05 "Hg10 mi
11:53 AM78 °FSunny.7 mph43%30.06 "Hg10 mi
10:53 AM74 °FSunny.6 mph50%30.06 "Hg10 mi
9:53 AM69 °FSunny.No wind66%30.06 "Hg8 mi
8:53 AM65 °FSunny.No wind68%30.06 "Hg10 mi
7:53 AM62 °FSunny.3 mph70%30.06 "Hg10 mi
6:53 AM60 °FClear.3 mph75%30.05 "Hg10 mi
5:53 AM62 °FLow clouds.3 mph83%30.04 "Hg10 mi
4:53 AM61 °FPassing clouds.No wind87%30.04 "Hg10 mi
3:53 AM62 °FPassing clouds.3 mph86%30.04 "Hg10 mi
2:53 AM63 °FClear.5 mph84%30.04 "Hg10 mi
1:53 AM64 °FClear.3 mph78%30.04 "Hg10 mi
12:53 AM66 °FClear.3 mph70%30.05 "Hg10 mi
11:53 PM
Fri, Mar 27
67 °FClear.3 mph66%30.04 "Hg10 mi
10:53 PM70 °FClear.5 mph57%30.04 "Hg10 mi
9:53 PM70 °FClear.5 mph57%30.03 "Hg10 mi
Weather by CustomWeather, © 2015

See weather overviewHow to use our weather pages